QPF
0.00 0.00 0.00 0.00 0.00 0.00 0.00 0.00 0.00 0.00 0.00 0.00 0.00 0.00 0.00 0.00 0.00 0.00 0.00 0.00 0.00 0.00 0.00 0.00 0.00 0.00 0.00 0.00 0.00 0.00 0.00 0.00 0.00 0.00 0.00 0.00 0.00 0.00 0.00 0.00 0.00 0.00 0.00
0.00 0.00 0.00 0.00 0.00 0.00 0.00 0.00 0.00 0.00 0.00 0.00 0.00 0.00 0.00 0.00 0.00 0.00 0.00 0.00 0.00 0.00 0.00 0.00 0.01 0.01 0.01 0.00 0.00 0.00 0.00 0.00 0.00 0.00 0.00 0.00 0.00 0.00 0.00 0.00 0.00 0.00 0.00
0.00 0.00 0.00 0.00 0.00 0.00 0.00 0.00 0.00 0.00 0.00 0.00 0.00 0.00 0.00 0.00 0.00 0.00 0.00 0.00 0.00 0.00 0.00 0.00 0.01 0.02 0.01 0.01 0.01 0.01 0.01 0.01 0.00 0.00 0.01 0.02 0.01 0.00 0.00 0.00 0.00 0.00 0.00
0.00 0.00 0.00 0.00 0.00 0.00 0.00 0.00 0.00 0.00 0.00 0.00 0.00 0.00 0.00 0.00 0.00 0.00 0.00 0.00 0.00 0.00 0.00 0.01 0.01 0.01 0.01 0.01 0.02 0.02 0.02 0.03 0.02 0.01 0.00 0.00 0.01 0.01 0.01 0.01 0.03 0.03 0.03
0.00 0.00 0.00 0.00 0.00 0.00 0.00 0.00 0.00 0.00 0.00 0.00 0.00 0.00 0.00 0.00 0.00 0.00 0.00 0.00 0.00 0.00 0.00 0.01 0.01 0.01 0.01 0.01 0.02 0.03 0.03 0.04 0.03 0.02 0.02 0.01 0.00 0.01 0.02 0.02 0.03 0.07 0.08
0.00 0.00 0.00 0.00 0.00 0.00 0.00 0.00 0.00 0.00 0.00 0.00 0.00 0.00 0.00 0.00 0.00 0.00 0.00 0.00 0.00 0.00 0.00 0.00 0.00 0.01 0.01 0.02 0.02 0.03 0.03 0.03 0.03 0.03 0.03 0.02 0.02 0.01 0.02 0.03 0.02 0.02 0.03
0.00 0.00 0.00 0.00 0.00 0.00 0.00 0.00 0.00 0.00 0.00 0.00 0.00 0.00 0.00 0.00 0.00 0.00 0.00 0.00 0.00 0.00 0.00 0.00 0.00 0.00 0.01 0.01 0.02 0.03 0.03 0.02 0.02 0.03 0.03 0.03 0.02 0.02 0.01 0.02 0.02 0.02 0.01
0.00 0.00 0.00 0.00 0.00 0.00 0.00 0.00 0.00 0.00 0.00 0.00 0.00 0.00 0.00 0.00 0.00 0.00 0.00 0.00 0.00 0.00 0.00 0.00 0.00 0.00 0.00 0.01 0.02 0.02 0.02 0.02 0.02 0.02 0.02 0.02 0.02 0.02 0.02 0.02 0.03 0.04 0.03
0.00 0.00 0.00 0.00 0.00 0.00 0.00 0.00 0.00 0.00 0.00 0.00 0.00 0.00 0.00 0.00 0.00 0.00 0.00 0.00 0.00 0.00 0.00 0.00 0.00 0.00 0.00 0.01 0.01 0.01 0.01 0.01 0.02 0.02 0.02 0.02 0.02 0.02 0.03 0.02 0.03 0.04 0.05
0.00 0.00 0.00 0.00 0.00 0.00 0.00 0.00 0.00 0.00 0.00 0.00 0.00 0.00 0.00 0.00 0.00 0.00 0.00 0.00 0.00 0.00 0.00 0.00 0.00 0.00 0.00 0.00 0.01 0.01 0.01 0.01 0.01 0.02 0.02 0.02 0.03 0.03 0.04 0.04 0.04 0.04 0.05
0.00 0.00 0.00 0.00 0.00 0.00 0.00 0.00 0.00 0.00 0.00 0.00 0.00 0.00 0.00 0.00 0.00 0.00 0.00 0.00 0.00 0.00 0.00 0.00 0.00 0.00 0.00 0.00 0.02 0.02 0.01 0.02 0.02 0.02 0.03 0.03 0.05 0.06 0.07 0.07 0.07 0.06 0.06
0.00 0.00 0.00 0.00 0.00 0.00 0.00 0.00 0.00 0.00 0.00 0.00 0.00 0.00 0.00 0.00 0.00 0.00 0.00 0.00 0.00 0.00 0.00 0.00 0.00 0.00 0.00 0.01 0.03 0.04 0.03 0.03 0.02 0.02 0.04 0.06 0.07 0.09 0.08 0.08 0.09 0.08 0.07
0.00 0.00 0.00 0.00 0.00 0.00 0.00 0.00 0.00 0.00 0.00 0.00 0.00 0.00 0.00 0.00 0.00 0.00 0.00 0.00 0.00 0.00 0.00 0.00 0.00 0.00 0.00 0.00 0.02 0.06 0.07 0.03 0.01 0.03 0.06 0.08 0.08 0.07 0.07 0.08 0.08 0.06 0.05
0.00 0.00 0.00 0.00 0.00 0.00 0.00 0.00 0.00 0.00 0.00 0.00 0.00 0.00 0.00 0.00 0.00 0.00 0.00 0.00 0.00 0.00 0.00 0.00 0.00 0.00 0.00 0.00 0.02 0.09 0.08 0.02 0.01 0.02 0.05 0.08 0.11 0.09 0.08 0.06 0.04 0.04 0.04
0.00 0.00 0.00 0.00 0.00 0.00 0.00 0.00 0.00 0.00 0.00 0.00 0.00 0.00 0.00 0.00 0.00 0.00 0.00 0.00 0.00 0.00 0.00 0.00 0.00 0.00 0.00 0.00 0.06 0.16 0.11 0.02 0.01 0.02 0.04 0.09 0.14 0.13 0.14 0.10 0.06 0.04 0.03
0.00 0.00 0.00 0.00 0.00 0.00 0.00 0.00 0.00 0.00 0.00 0.00 0.00 0.00 0.00 0.00 0.00 0.00 0.00 0.00 0.00 0.00 0.00 0.00 0.00 0.00 0.00 0.03 0.16 0.21 0.06 0.02 0.03 0.04 0.04 0.06 0.10 0.11 0.10 0.10 0.09 0.08 0.05
0.00 0.00 0.00 0.00 0.00 0.00 0.00 0.00 0.00 0.00 0.00 0.00 0.00 0.00 0.00 0.00 0.00 0.00 0.00 0.00 0.00 0.00 0.00 0.00 0.00 0.00 0.00 0.07 0.27 0.15 0.02 0.03 0.06 0.04 0.03 0.04 0.07 0.07 0.07 0.08 0.08 0.08 0.11
0.00 0.00 0.00 0.00 0.00 0.00 0.00 0.00 0.00 0.00 0.00 0.00 0.00 0.00 0.00 0.00 0.00 0.00 0.00 0.00 0.00 0.00 0.00 0.00 0.00 0.00 0.00 0.09 0.25 0.08 0.01 0.04 0.05 0.03 0.03 0.03 0.04 0.06 0.05 0.07 0.08 0.10 0.15
0.00 0.00 0.00 0.00 0.00 0.00 0.00 0.00 0.00 0.00 0.00 0.00 0.00 0.00 0.00 0.00 0.00 0.00 0.00 0.00 0.00 0.00 0.00 0.00 0.00 0.00 0.00 0.07 0.18 0.04 0.01 0.03 0.04 0.02 0.02 0.02 0.02 0.02 0.01 0.02 0.04 0.05 0.09
0.00 0.00 0.00 0.00 0.00 0.00 0.00 0.00 0.00 0.00 0.00 0.00 0.00 0.00 0.00 0.00 0.00 0.00 0.00 0.00 0.00 0.00 0.00 0.00 0.00 0.00 0.00 0.04 0.10 0.04 0.00 0.01 0.02 0.01 0.01 0.02 0.02 0.01 0.00 0.00 0.01 0.01 0.03
0.00 0.00 0.00 0.00 0.00 0.00 0.00 0.00 0.00 0.00 0.00 0.00 0.00 0.00 0.00 0.00 0.00 0.00 0.00 0.00 0.00 0.00 0.00 0.00 0.00 0.00 0.00 0.01 0.04 0.03 0.02 0.01 0.01 0.01 0.00 0.01 0.01 0.01 0.00 0.00 0.00 0.00 0.01
0.00 0.00 0.00 0.00 0.00 0.00 0.00 0.00 0.00 0.00 0.00 0.00 0.00 0.00 0.00 0.00 0.00 0.00 0.00 0.00 0.00 0.00 0.00 0.01 0.00 0.00 0.00 0.01 0.02 0.01 0.02 0.02 0.01 0.01 0.00 0.00 0.00 0.00 0.00 0.00 0.00 0.00 0.00
0.00 0.00 0.00 0.00 0.00 0.00 0.00 0.00 0.00 0.00 0.00 0.00 0.00 0.00 0.00 0.00 0.00 0.00 0.00 0.01 0.01 0.01 0.02 0.01 0.01 0.00 0.00 0.01 0.01 0.00 0.01 0.01 0.01 0.00 0.00 0.00 0.00 0.00 0.00 0.00 0.00 0.00 0.00
0.00 0.00 0.00 0.00 0.00 0.00 0.00 0.00 0.00 0.00 0.00 0.00 0.00 0.00 0.00 0.00 0.00 0.00 0.01 0.01 0.02 0.05 0.03 0.01 0.01 0.00 0.00 0.03 0.02 0.00 0.00 0.00 0.00 0.00 0.00 0.00 0.00 0.00 0.00 0.00 0.00 0.00 0.00
0.00 0.00 0.00 0.00 0.00 0.00 0.00 0.00 0.00 0.00 0.00 0.00 0.00 0.00 0.00 0.00 0.00 0.00 0.00 0.01 0.03 0.07 0.04 0.02 0.01 0.01 0.02 0.06 0.02 0.00 0.00 0.00 0.00 0.00 0.00 0.00 0.00 0.00 0.00 0.00 0.00 0.00 0.00
0.00 0.00 0.00 0.00 0.00 0.00 0.00 0.00 0.00 0.00 0.00 0.00 0.00 0.00 0.00 0.00 0.00 0.00 0.00 0.01 0.02 0.04 0.03 0.03 0.02 0.00 0.02 0.05 0.01 0.00 0.00 0.00 0.00 0.00 0.00 0.00 0.00 0.00 0.00 0.00 0.00 0.00 0.00
MSLP
1031.35 1031.68 1032.08 1032.52 1032.94 1033.27 1033.46 1033.48 1033.31 1032.97 1032.50 1031.94 1031.35 1030.75 1030.17 1029.63 1029.10 1028.59 1028.08 1027.54 1027.00 1026.44 1025.89 1025.36 1024.86 1024.38 1023.92 1023.44 1022.89 1022.24 1021.44 1020.48 1019.36 1018.09 1016.72 1015.31 1013.92 1012.61 1011.44 1010.45 1009.66 1009.09 1008.72
1031.71 1032.07 1032.49 1032.93 1033.34 1033.66 1033.85 1033.89 1033.75 1033.46 1033.05 1032.55 1032.01 1031.44 1030.87 1030.30 1029.72 1029.14 1028.54 1027.94 1027.33 1026.74 1026.17 1025.65 1025.18 1024.74 1024.30 1023.85 1023.33 1022.71 1021.95 1021.04 1019.97 1018.77 1017.47 1016.11 1014.74 1013.41 1012.17 1011.06 1010.11 1009.34 1008.76
1032.14 1032.54 1032.98 1033.40 1033.78 1034.06 1034.22 1034.23 1034.10 1033.84 1033.48 1033.04 1032.54 1032.01 1031.45 1030.86 1030.24 1029.60 1028.94 1028.28 1027.63 1027.00 1026.42 1025.90 1025.43 1024.99 1024.56 1024.11 1023.59 1022.99 1022.27 1021.42 1020.45 1019.36 1018.18 1016.93 1015.65 1014.37 1013.12 1011.93 1010.85 1009.90 1009.10
1032.58 1033.03 1033.47 1033.86 1034.19 1034.42 1034.52 1034.50 1034.36 1034.11 1033.78 1033.39 1032.94 1032.44 1031.90 1031.30 1030.66 1029.99 1029.29 1028.59 1027.91 1027.26 1026.67 1026.13 1025.64 1025.18 1024.72 1024.24 1023.70 1023.10 1022.41 1021.64 1020.77 1019.83 1018.81 1017.73 1016.59 1015.40 1014.19 1012.98 1011.80 1010.68 1009.69
1032.97 1033.46 1033.90 1034.28 1034.55 1034.72 1034.76 1034.70 1034.54 1034.29 1033.99 1033.63 1033.22 1032.75 1032.22 1031.64 1031.00 1030.31 1029.60 1028.88 1028.18 1027.53 1026.92 1026.37 1025.85 1025.34 1024.83 1024.29 1023.71 1023.09 1022.42 1021.70 1020.95 1020.15 1019.31 1018.41 1017.44 1016.38 1015.24 1014.03 1012.79 1011.55 1010.38
1033.26 1033.80 1034.25 1034.61 1034.84 1034.95 1034.94 1034.84 1034.65 1034.41 1034.12 1033.79 1033.41 1032.97 1032.47 1031.90 1031.26 1030.58 1029.87 1029.16 1028.47 1027.81 1027.20 1026.62 1026.06 1025.49 1024.91 1024.30 1023.66 1022.99 1022.32 1021.64 1020.98 1020.31 1019.62 1018.89 1018.08 1017.15 1016.10 1014.92 1013.65 1012.33 1011.03
1033.47 1034.04 1034.51 1034.85 1035.05 1035.12 1035.08 1034.95 1034.75 1034.50 1034.23 1033.91 1033.56 1033.14 1032.66 1032.10 1031.48 1030.81 1030.11 1029.42 1028.74 1028.10 1027.48 1026.88 1026.27 1025.64 1024.98 1024.28 1023.56 1022.83 1022.13 1021.46 1020.84 1020.26 1019.70 1019.10 1018.41 1017.60 1016.62 1015.48 1014.21 1012.85 1011.48
1033.62 1034.21 1034.69 1035.02 1035.20 1035.25 1035.19 1035.04 1034.84 1034.60 1034.33 1034.04 1033.69 1033.29 1032.82 1032.27 1031.66 1031.00 1030.32 1029.64 1028.98 1028.35 1027.73 1027.11 1026.46 1025.77 1025.02 1024.23 1023.42 1022.62 1021.85 1021.16 1020.55 1020.01 1019.51 1018.98 1018.38 1017.64 1016.73 1015.63 1014.37 1013.00 1011.61
1033.76 1034.36 1034.83 1035.16 1035.33 1035.36 1035.29 1035.14 1034.94 1034.71 1034.45 1034.17 1033.83 1033.43 1032.96 1032.41 1031.80 1031.15 1030.48 1029.81 1029.17 1028.54 1027.92 1027.27 1026.58 1025.83 1025.01 1024.14 1023.23 1022.34 1021.51 1020.76 1020.12 1019.57 1019.07 1018.56 1017.99 1017.29 1016.41 1015.34 1014.11 1012.78 1011.42
1033.93 1034.53 1034.99 1035.29 1035.45 1035.47 1035.39 1035.24 1035.05 1034.83 1034.58 1034.30 1033.96 1033.55 1033.07 1032.51 1031.90 1031.24 1030.57 1029.91 1029.27 1028.64 1028.00 1027.33 1026.61 1025.80 1024.91 1023.96 1022.98 1022.01 1021.10 1020.28 1019.58 1018.98 1018.44 1017.91 1017.32 1016.62 1015.75 1014.71 1013.52 1012.25 1010.95
1034.19 1034.76 1035.18 1035.46 1035.59 1035.59 1035.50 1035.35 1035.15 1034.94 1034.69 1034.40 1034.06 1033.64 1033.15 1032.58 1031.94 1031.28 1030.60 1029.93 1029.27 1028.63 1027.97 1027.27 1026.50 1025.65 1024.71 1023.70 1022.66 1021.62 1020.65 1019.77 1019.00 1018.33 1017.72 1017.14 1016.51 1015.78 1014.91 1013.90 1012.76 1011.56 1010.36
1034.52 1035.06 1035.44 1035.67 1035.76 1035.73 1035.61 1035.44 1035.24 1035.01 1034.76 1034.46 1034.11 1033.69 1033.18 1032.59 1031.94 1031.26 1030.57 1029.88 1029.20 1028.52 1027.83 1027.10 1026.29 1025.40 1024.42 1023.38 1022.30 1021.22 1020.20 1019.27 1018.45 1017.72 1017.05 1016.41 1015.73 1014.97 1014.10 1013.11 1012.03 1010.91 1009.82
1034.93 1035.43 1035.76 1035.93 1035.96 1035.88 1035.72 1035.52 1035.29 1035.04 1034.77 1034.47 1034.10 1033.67 1033.15 1032.56 1031.90 1031.21 1030.50 1029.78 1029.07 1028.35 1027.62 1026.84 1026.00 1025.08 1024.08 1023.01 1021.92 1020.84 1019.81 1018.86 1018.01 1017.24 1016.54 1015.85 1015.13 1014.35 1013.48 1012.52 1011.50 1010.47 1009.48
1035.39 1035.84 1036.12 1036.22 1036.18 1036.04 1035.82 1035.56 1035.29 1035.02 1034.73 1034.41 1034.04 1033.60 1033.08 1032.49 1031.84 1031.14 1030.41 1029.67 1028.92 1028.17 1027.39 1026.57 1025.68 1024.74 1023.73 1022.67 1021.59 1020.54 1019.53 1018.60 1017.75 1016.98 1016.26 1015.56 1014.83 1014.04 1013.19 1012.27 1011.31 1010.36 1009.46
1035.86 1036.27 1036.48 1036.52 1036.41 1036.19 1035.90 1035.59 1035.27 1034.95 1034.63 1034.29 1033.91 1033.48 1032.97 1032.39 1031.75 1031.05 1030.32 1029.56 1028.79 1027.99 1027.17 1026.31 1025.40 1024.43 1023.42 1022.39 1021.36 1020.35 1019.40 1018.52 1017.71 1016.97 1016.27 1015.58 1014.86 1014.10 1013.27 1012.40 1011.50 1010.62 1009.78
1036.30 1036.67 1036.83 1036.80 1036.62 1036.33 1035.98 1035.60 1035.22 1034.85 1034.49 1034.13 1033.75 1033.31 1032.82 1032.27 1031.65 1030.97 1030.24 1029.48 1028.68 1027.86 1027.00 1026.11 1025.18 1024.21 1023.22 1022.23 1021.25 1020.32 1019.44 1018.64 1017.90 1017.21 1016.56 1015.90 1015.21 1014.48 1013.70 1012.88 1012.04 1011.22 1010.43
1036.70 1037.03 1037.14 1037.05 1036.81 1036.45 1036.03 1035.59 1035.16 1034.74 1034.35 1033.96 1033.56 1033.13 1032.65 1032.12 1031.52 1030.87 1030.16 1029.40 1028.60 1027.77 1026.89 1025.98 1025.05 1024.09 1023.14 1022.20 1021.29 1020.44 1019.66 1018.94 1018.29 1017.67 1017.07 1016.46 1015.82 1015.14 1014.40 1013.63 1012.85 1012.07 1011.33
1037.03 1037.31 1037.38 1037.24 1036.95 1036.55 1036.08 1035.59 1035.10 1034.64 1034.20 1033.78 1033.36 1032.92 1032.45 1031.94 1031.37 1030.74 1030.06 1029.32 1028.54 1027.71 1026.84 1025.94 1025.02 1024.10 1023.19 1022.31 1021.49 1020.73 1020.04 1019.41 1018.84 1018.29 1017.75 1017.19 1016.60 1015.96 1015.27 1014.55 1013.82 1013.09 1012.38
1037.28 1037.52 1037.55 1037.38 1037.05 1036.62 1036.12 1035.59 1035.07 1034.56 1034.08 1033.61 1033.16 1032.71 1032.23 1031.73 1031.18 1030.58 1029.93 1029.22 1028.47 1027.66 1026.82 1025.95 1025.07 1024.20 1023.36 1022.56 1021.82 1021.15 1020.55 1020.01 1019.51 1019.02 1018.54 1018.02 1017.47 1016.87 1016.23 1015.55 1014.87 1014.18 1013.50
1037.47 1037.66 1037.64 1037.45 1037.11 1036.67 1036.16 1035.61 1035.06 1034.51 1033.99 1033.48 1032.99 1032.50 1032.01 1031.50 1030.97 1030.39 1029.77 1029.10 1028.39 1027.63 1026.84 1026.02 1025.21 1024.40 1023.64 1022.92 1022.27 1021.68 1021.16 1020.69 1020.25 1019.82 1019.37 1018.89 1018.37 1017.80 1017.20 1016.57 1015.93 1015.29 1014.66
1037.60 1037.73 1037.68 1037.47 1037.14 1036.70 1036.20 1035.65 1035.08 1034.51 1033.95 1033.40 1032.86 1032.34 1031.82 1031.29 1030.76 1030.20 1029.61 1028.98 1028.32 1027.62 1026.90 1026.15 1025.41 1024.69 1024.00 1023.37 1022.80 1022.30 1021.85 1021.43 1021.04 1020.65 1020.23 1019.77 1019.27 1018.74 1018.17 1017.58 1017.00 1016.41 1015.83
1037.69 1037.75 1037.67 1037.46 1037.14 1036.73 1036.25 1035.71 1035.15 1034.56 1033.97 1033.38 1032.80 1032.24 1031.68 1031.14 1030.60 1030.05 1029.49 1028.91 1028.30 1027.66 1027.01 1026.34 1025.68 1025.04 1024.44 1023.89 1023.40 1022.97 1022.57 1022.21 1021.86 1021.49 1021.09 1020.66 1020.18 1019.67 1019.14 1018.60 1018.07 1017.54 1017.03
1037.74 1037.75 1037.64 1037.44 1037.14 1036.76 1036.32 1035.81 1035.26 1034.67 1034.06 1033.45 1032.83 1032.23 1031.65 1031.08 1030.53 1030.00 1029.46 1028.92 1028.36 1027.79 1027.20 1026.61 1026.03 1025.47 1024.94 1024.47 1024.04 1023.66 1023.32 1023.00 1022.67 1022.33 1021.96 1021.54 1021.09 1020.62 1020.13 1019.64 1019.16 1018.70 1018.26
1037.77 1037.74 1037.62 1037.42 1037.15 1036.82 1036.41 1035.94 1035.41 1034.83 1034.22 1033.59 1032.95 1032.33 1031.72 1031.14 1030.59 1030.07 1029.55 1029.05 1028.54 1028.02 1027.49 1026.97 1026.45 1025.95 1025.49 1025.07 1024.69 1024.36 1024.05 1023.76 1023.47 1023.16 1022.81 1022.42 1022.01 1021.57 1021.12 1020.69 1020.27 1019.89 1019.52
1037.81 1037.74 1037.61 1037.43 1037.19 1036.89 1036.53 1036.09 1035.59 1035.04 1034.43 1033.80 1033.16 1032.52 1031.91 1031.33 1030.79 1030.28 1029.79 1029.31 1028.84 1028.36 1027.88 1027.40 1026.92 1026.47 1026.04 1025.66 1025.32 1025.02 1024.74 1024.48 1024.22 1023.93 1023.62 1023.28 1022.90 1022.51 1022.11 1021.73 1021.38 1021.06 1020.77
1037.84 1037.75 1037.62 1037.46 1037.24 1036.98 1036.65 1036.25 1035.78 1035.25 1034.66 1034.04 1033.41 1032.78 1032.18 1031.62 1031.09 1030.60 1030.13 1029.68 1029.23 1028.78 1028.33 1027.87 1027.42 1026.98 1026.57 1026.21 1025.88 1025.59 1025.34 1025.11 1024.88 1024.63 1024.36 1024.06 1023.74 1023.40 1023.06 1022.73 1022.43 1022.16 1021.93
Thickness
5519 5503 5486 5469 5451 5436 5420 5406 5393 5380 5370 5363 5356 5353 5348 5344 5341 5338 5334 5332 5330 5330 5332 5335 5338 5342 5347 5352 5357 5364 5373 5384 5400 5420 5444 5472 5496 5517 5532 5550 5567 5583 5596
5503 5486 5469 5451 5434 5417 5400 5385 5372 5360 5350 5340 5333 5328 5323 5320 5318 5313 5310 5307 5306 5305 5307 5309 5312 5317 5323 5330 5336 5343 5352 5361 5371 5386 5410 5443 5473 5493 5514 5532 5548 5565 5579
5486 5470 5453 5434 5415 5397 5380 5365 5353 5341 5330 5321 5314 5309 5306 5302 5299 5296 5292 5288 5284 5283 5284 5284 5288 5292 5298 5306 5314 5323 5332 5341 5350 5359 5373 5397 5426 5445 5483 5505 5524 5541 5558
5474 5457 5438 5418 5400 5381 5363 5348 5336 5325 5314 5305 5298 5292 5288 5284 5281 5278 5276 5273 5270 5269 5268 5267 5267 5270 5275 5283 5292 5303 5312 5323 5332 5339 5347 5361 5381 5404 5442 5474 5496 5513 5533
5461 5441 5421 5403 5384 5365 5349 5335 5323 5313 5303 5294 5286 5279 5272 5268 5264 5262 5260 5258 5256 5255 5254 5253 5252 5253 5256 5262 5271 5282 5293 5303 5313 5322 5330 5340 5355 5376 5400 5432 5469 5490 5512
5447 5426 5408 5388 5369 5352 5337 5324 5313 5303 5293 5284 5276 5268 5261 5256 5251 5247 5244 5243 5242 5240 5239 5238 5238 5239 5241 5245 5252 5262 5273 5285 5296 5306 5315 5323 5334 5353 5374 5403 5433 5460 5488
5434 5414 5395 5376 5358 5342 5327 5314 5303 5294 5284 5275 5266 5258 5250 5243 5237 5232 5229 5228 5227 5226 5224 5223 5224 5226 5228 5230 5236 5244 5256 5268 5280 5290 5300 5309 5316 5328 5348 5375 5405 5432 5464
5422 5402 5382 5363 5347 5330 5316 5304 5294 5284 5275 5266 5257 5248 5240 5233 5226 5220 5217 5214 5212 5211 5211 5209 5209 5211 5213 5217 5223 5231 5240 5253 5265 5276 5287 5295 5301 5309 5327 5351 5377 5405 5440
5411 5390 5371 5354 5337 5321 5308 5296 5286 5276 5265 5256 5248 5240 5231 5223 5217 5212 5208 5204 5201 5199 5198 5196 5196 5196 5199 5204 5211 5218 5226 5238 5251 5263 5275 5283 5290 5297 5310 5330 5355 5379 5410
5401 5379 5361 5344 5327 5314 5301 5289 5278 5267 5256 5247 5238 5230 5221 5215 5209 5204 5200 5195 5191 5188 5186 5185 5184 5183 5185 5190 5198 5206 5216 5227 5240 5253 5265 5273 5281 5288 5299 5316 5339 5365 5391
5391 5370 5352 5335 5320 5307 5294 5282 5271 5260 5250 5240 5230 5221 5214 5208 5202 5195 5190 5186 5182 5178 5176 5174 5173 5172 5175 5178 5185 5194 5206 5217 5231 5244 5255 5264 5273 5283 5294 5309 5330 5354 5378
5381 5362 5343 5327 5314 5301 5289 5276 5264 5253 5243 5233 5223 5214 5207 5200 5193 5187 5181 5176 5172 5168 5164 5161 5161 5162 5164 5167 5173 5183 5196 5208 5222 5234 5245 5256 5267 5278 5291 5305 5324 5347 5371
5373 5353 5335 5320 5307 5295 5282 5270 5258 5247 5236 5226 5217 5209 5200 5193 5185 5178 5172 5166 5162 5157 5152 5148 5148 5150 5154 5158 5165 5174 5187 5200 5212 5224 5236 5248 5260 5274 5288 5303 5320 5339 5363
5364 5345 5327 5313 5301 5288 5276 5264 5253 5241 5231 5221 5212 5203 5194 5185 5177 5168 5161 5154 5148 5142 5137 5132 5132 5136 5143 5150 5159 5168 5180 5192 5202 5214 5226 5239 5253 5267 5283 5301 5317 5334 5354
5358 5338 5321 5309 5296 5284 5271 5260 5249 5238 5227 5218 5209 5199 5189 5179 5169 5160 5151 5142 5133 5124 5116 5112 5115 5122 5131 5142 5153 5166 5176 5184 5192 5203 5216 5229 5244 5258 5273 5290 5306 5326 5346
5350 5331 5317 5304 5292 5279 5268 5256 5246 5235 5225 5216 5207 5197 5186 5175 5164 5153 5143 5130 5117 5106 5097 5094 5099 5109 5120 5134 5150 5163 5168 5175 5183 5193 5205 5218 5233 5247 5261 5276 5291 5309 5328
5342 5324 5310 5298 5287 5275 5264 5252 5243 5233 5224 5215 5205 5194 5182 5171 5159 5147 5134 5118 5103 5091 5084 5083 5089 5099 5111 5125 5141 5151 5156 5165 5174 5183 5195 5207 5221 5236 5248 5262 5276 5291 5308
5334 5317 5305 5295 5285 5274 5261 5250 5240 5232 5223 5214 5203 5192 5180 5168 5156 5142 5126 5110 5094 5082 5077 5078 5084 5093 5105 5118 5131 5140 5146 5154 5163 5173 5184 5196 5210 5226 5238 5250 5264 5278 5292
5331 5315 5304 5295 5284 5271 5260 5250 5240 5231 5222 5213 5202 5191 5179 5167 5153 5139 5123 5106 5089 5079 5075 5076 5081 5089 5099 5111 5122 5128 5135 5142 5150 5160 5171 5185 5198 5215 5228 5241 5255 5267 5280
5330 5315 5303 5293 5282 5270 5260 5249 5239 5230 5220 5211 5200 5189 5178 5165 5152 5138 5122 5104 5088 5079 5076 5076 5079 5085 5093 5103 5113 5118 5122 5129 5137 5146 5157 5172 5187 5201 5216 5228 5243 5257 5267
5328 5313 5299 5289 5280 5270 5259 5248 5238 5228 5218 5208 5199 5189 5178 5166 5155 5140 5124 5107 5091 5081 5076 5076 5079 5083 5089 5096 5105 5112 5113 5117 5125 5134 5145 5158 5173 5187 5202 5215 5229 5242 5254
5325 5310 5296 5287 5279 5270 5258 5247 5237 5227 5217 5208 5200 5191 5180 5169 5158 5144 5129 5113 5097 5086 5079 5077 5079 5082 5086 5092 5099 5105 5108 5112 5116 5124 5135 5147 5160 5173 5187 5201 5214 5228 5241
5321 5307 5294 5285 5277 5268 5257 5247 5238 5229 5219 5210 5203 5193 5184 5174 5162 5149 5136 5121 5106 5093 5084 5080 5079 5081 5084 5087 5093 5097 5101 5105 5110 5117 5129 5139 5149 5160 5172 5186 5200 5213 5226
5318 5305 5293 5284 5275 5266 5257 5248 5240 5230 5219 5212 5205 5196 5188 5178 5166 5154 5141 5128 5115 5103 5089 5083 5080 5081 5083 5086 5089 5091 5094 5099 5104 5109 5118 5128 5138 5149 5161 5173 5184 5196 5209
5317 5304 5292 5283 5274 5266 5258 5250 5241 5232 5222 5214 5207 5198 5190 5181 5169 5157 5146 5135 5122 5111 5101 5091 5085 5083 5084 5088 5091 5091 5093 5096 5099 5102 5109 5119 5129 5139 5150 5161 5171 5182 5194
5315 5302 5291 5282 5273 5266 5259 5251 5242 5234 5225 5219 5210 5201 5194 5185 5174 5162 5151 5142 5133 5124 5114 5105 5097 5091 5090 5090 5090 5090 5092 5094 5096 5097 5101 5108 5117 5127 5137 5148 5158 5169 5179